1586556021,2020-04-11 00:00,64.73,1006.09,1024.17,150,0.47,-5.40,-81,1
1586556081,2020-04-11 00:01,65.52,1006.13,1024.21,150,0.44,-5.27,-81,1
1586556141,2020-04-11 00:02,62.29,1006.10,1024.18,150,0.40,-5.97,-81,1
1586556201,2020-04-11 00:03,60.69,1006.16,1024.24,150,0.36,-6.35,-81,1
1586556261,2020-04-11 00:04,61.13,1006.11,1024.18,150,0.32,-6.30,-81,1
1586556321,2020-04-11 00:05,60.57,1006.11,1024.19,150,0.29,-6.44,-81,1
1586556382,2020-04-11 00:06,62.71,1006.11,1024.19,150,0.25,-6.03,-81,1
1586556442,2020-04-11 00:07,64.40,1006.13,1024.21,150,0.23,-5.70,-82,1
1586556502,2020-04-11 00:08,62.18,1006.12,1024.19,150,0.20,-6.19,-82,1
1586556562,2020-04-11 00:09,65.08,1006.09,1024.16,150,0.17,-5.62,-82,1
1586556622,2020-04-11 00:10,65.78,1006.08,1024.15,150,0.14,-5.50,-82,1
1586556682,2020-04-11 00:11,64.57,1006.10,1024.18,150,0.11,-5.78,-82,1
1586556742,2020-04-11 00:12,64.98,1006.13,1024.21,150,0.08,-5.72,-82,1
1586556802,2020-04-11 00:13,65.37,1006.16,1024.23,150,0.05,-5.67,-82,1
1586556862,2020-04-11 00:14,66.22,1006.20,1024.27,150,0.02,-5.53,-83,1
1586556922,2020-04-11 00:15,66.57,1006.22,1024.29,150,-0.01,-5.49,-82,1
1586556982,2020-04-11 00:16,67.09,1006.22,1024.29,150,-0.04,-5.42,-82,1
1586557042,2020-04-11 00:17,67.06,1006.20,1024.27,150,-0.07,-5.45,-82,1
1586557102,2020-04-11 00:18,65.85,1006.22,1024.29,150,-0.10,-5.72,-82,1
1586557162,2020-04-11 00:19,63.34,1006.22,1024.29,150,-0.12,-6.25,-82,1
1586557222,2020-04-11 00:20,65.20,1006.21,1024.28,150,-0.15,-5.90,-82,1
1586557282,2020-04-11 00:21,66.56,1006.20,1024.27,150,-0.17,-5.65,-81,1
1586557342,2020-04-11 00:22,64.95,1006.19,1024.26,150,-0.19,-5.99,-81,1
1586557402,2020-04-11 00:23,65.33,1006.20,1024.28,150,-0.21,-5.93,-81,1
1586557462,2020-04-11 00:24,65.55,1006.20,1024.28,150,-0.23,-5.90,-82,1
1586557522,2020-04-11 00:25,61.96,1006.21,1024.28,150,-0.25,-6.66,-82,1
1586557582,2020-04-11 00:26,66.38,1006.17,1024.24,150,-0.26,-5.77,-82,1
1586557642,2020-04-11 00:27,65.54,1006.19,1024.27,150,-0.27,-5.94,-81,1
1586557702,2020-04-11 00:28,66.13,1006.20,1024.27,150,-0.29,-5.85,-81,1
1586557762,2020-04-11 00:29,63.65,1006.23,1024.30,150,-0.30,-6.36,-81,1
1586557822,2020-04-11 00:30,64.59,1006.24,1024.31,150,-0.31,-6.17,-80,1
1586557883,2020-04-11 00:31,60.73,1006.26,1024.33,150,-0.33,-6.99,-81,1
1586557943,2020-04-11 00:32,64.42,1006.25,1024.32,150,-0.33,-6.23,-82,1
1586558003,2020-04-11 00:33,63.42,1006.23,1024.31,150,-0.34,-6.44,-81,1
1586558063,2020-04-11 00:34,65.17,1006.21,1024.29,150,-0.35,-6.09,-81,1
1586558123,2020-04-11 00:35,66.83,1006.21,1024.28,150,-0.37,-5.78,-81,1
1586558183,2020-04-11 00:36,61.81,1006.20,1024.27,150,-0.38,-6.81,-81,1
1586558243,2020-04-11 00:37,63.49,1006.22,1024.30,150,-0.39,-6.47,-82,1
1586558303,2020-04-11 00:38,66.46,1006.23,1024.31,150,-0.40,-5.88,-81,1
1586558363,2020-04-11 00:39,67.22,1006.18,1024.25,150,-0.40,-5.74,-81,1
1586558423,2020-04-11 00:40,65.47,1006.22,1024.29,150,-0.42,-6.10,-81,1
1586558483,2020-04-11 00:41,64.58,1006.20,1024.27,150,-0.43,-6.29,-82,1
1586558543,2020-04-11 00:42,63.79,1006.23,1024.30,150,-0.44,-6.46,-82,1
1586558603,2020-04-11 00:43,65.26,1006.23,1024.30,150,-0.45,-6.17,-81,1
1586558663,2020-04-11 00:44,65.50,1006.20,1024.27,150,-0.45,-6.12,-81,1
1586558723,2020-04-11 00:45,65.71,1006.25,1024.32,150,-0.48,-6.11,-81,1
1586558783,2020-04-11 00:46,66.11,1006.25,1024.32,150,-0.49,-6.04,-82,1
1586558843,2020-04-11 00:47,66.39,1006.30,1024.37,150,-0.50,-5.99,-81,1
1586558903,2020-04-11 00:48,63.95,1006.31,1024.38,150,-0.52,-6.50,-81,1
1586558963,2020-04-11 00:49,66.66,1006.25,1024.33,150,-0.55,-5.99,-82,1
1586559023,2020-04-11 00:50,67.49,1006.22,1024.29,150,-0.57,-5.85,-82,1
1586559083,2020-04-11 00:51,67.34,1006.23,1024.30,150,-0.60,-5.91,-81,1
1586559143,2020-04-11 00:52,67.42,1006.31,1024.38,150,-0.62,-5.91,-81,1
1586559203,2020-04-11 00:53,66.54,1006.30,1024.38,150,-0.65,-6.11,-81,1
1586559263,2020-04-11 00:54,65.33,1006.29,1024.36,150,-0.69,-6.39,-82,1
1586559324,2020-04-11 00:55,66.96,1006.31,1024.38,150,-0.72,-6.09,-82,1
1586559384,2020-04-11 00:56,66.90,1006.30,1024.37,150,-0.75,-6.13,-81,1
1586559444,2020-04-11 00:57,66.77,1006.30,1024.37,150,-0.78,-6.19,-82,1
1586559504,2020-04-11 00:58,67.25,1006.29,1024.36,150,-0.82,-6.13,-81,1
1586559564,2020-04-11 00:59,67.97,1006.33,1024.41,150,-0.85,-6.02,-81,1
1586559624,2020-04-11 01:00,66.01,1006.31,1024.38,150,-0.88,-6.43,-81,1
1586559684,2020-04-11 01:01,66.97,1006.32,1024.39,150,-0.91,-6.27,-81,1
1586559744,2020-04-11 01:02,66.85,1006.28,1024.36,150,-0.94,-6.33,-81,1
1586559804,2020-04-11 01:03,67.76,1006.30,1024.37,150,-0.96,-6.17,-81,1
1586559864,2020-04-11 01:04,68.23,1006.27,1024.34,150,-0.99,-6.11,-81,1
1586559924,2020-04-11 01:05,68.80,1006.32,1024.39,150,-1.01,-6.02,-81,1
1586559984,2020-04-11 01:06,67.52,1006.31,1024.38,150,-1.03,-6.28,-81,1
1586560044,2020-04-11 01:07,67.33,1006.28,1024.35,150,-1.05,-6.34,-80,1
1586560104,2020-04-11 01:08,67.59,1006.29,1024.36,150,-1.06,-6.30,-81,1
1586560164,2020-04-11 01:09,68.67,1006.26,1024.34,150,-1.08,-6.11,-81,1
1586560224,2020-04-11 01:10,69.01,1006.28,1024.36,150,-1.09,-6.05,-81,1
1586560284,2020-04-11 01:11,68.40,1006.29,1024.36,150,-1.11,-6.19,-81,1
1586560344,2020-04-11 01:12,67.00,1006.29,1024.36,150,-1.13,-6.48,-81,1
1586560404,2020-04-11 01:13,69.20,1006.30,1024.37,150,-1.14,-6.07,-80,1
1586560464,2020-04-11 01:14,67.42,1006.27,1024.34,150,-1.17,-6.44,-81,1
1586560524,2020-04-11 01:15,66.73,1006.31,1024.38,150,-1.18,-6.58,-80,1
1586560584,2020-04-11 01:16,67.50,1006.30,1024.37,150,-1.20,-6.45,-81,1
1586560644,2020-04-11 01:17,69.09,1006.29,1024.36,150,-1.21,-6.15,-81,1
1586560705,2020-04-11 01:18,67.73,1006.28,1024.35,150,-1.23,-6.43,-81,1
1586560765,2020-04-11 01:19,69.75,1006.27,1024.34,150,-1.23,-6.05,-80,1
1586560825,2020-04-11 01:20,67.76,1006.27,1024.34,150,-1.25,-6.44,-81,1
1586560885,2020-04-11 01:21,64.83,1006.24,1024.31,150,-1.27,-7.04,-80,1
1586560945,2020-04-11 01:22,69.36,1006.26,1024.33,150,-1.27,-6.16,-80,1
1586561005,2020-04-11 01:23,65.99,1006.27,1024.34,150,-1.28,-6.82,-81,1
1586561065,2020-04-11 01:24,69.16,1006.29,1024.36,150,-1.29,-6.22,-80,1
1586561125,2020-04-11 01:25,67.84,1006.29,1024.36,150,-1.29,-6.47,-81,1
1586561185,2020-04-11 01:26,68.25,1006.26,1024.33,150,-1.30,-6.40,-80,1
1586561245,2020-04-11 01:27,68.76,1006.27,1024.34,150,-1.31,-6.31,-82,1
1586561305,2020-04-11 01:28,67.33,1006.28,1024.35,150,-1.32,-6.60,-82,1
1586561365,2020-04-11 01:29,68.12,1006.26,1024.34,150,-1.33,-6.45,-81,1
1586561425,2020-04-11 01:30,67.74,1006.28,1024.35,150,-1.34,-6.54,-80,1
1586561485,2020-04-11 01:31,66.74,1006.27,1024.35,150,-1.36,-6.75,-80,1
1586561545,2020-04-11 01:32,69.92,1006.27,1024.35,150,-1.36,-6.14,-80,1
1586561605,2020-04-11 01:33,67.15,1006.30,1024.37,150,-1.37,-6.68,-81,1
1586561665,2020-04-11 01:34,66.85,1006.29,1024.36,150,-1.38,-6.75,-81,1
1586561725,2020-04-11 01:35,67.04,1006.28,1024.35,150,-1.39,-6.72,-81,1
1586561785,2020-04-11 01:36,67.28,1006.30,1024.37,150,-1.40,-6.68,-81,1
1586561845,2020-04-11 01:37,68.17,1006.29,1024.37,150,-1.41,-6.52,-80,1
1586561905,2020-04-11 01:38,65.89,1006.31,1024.38,150,-1.43,-6.98,-80,1
1586561965,2020-04-11 01:39,65.94,1006.27,1024.34,150,-1.45,-6.99,-80,1
1586562025,2020-04-11 01:40,69.36,1006.30,1024.37,150,-1.46,-6.34,-80,1
1586562085,2020-04-11 01:41,69.29,1006.27,1024.34,150,-1.47,-6.37,-80,1
1586562145,2020-04-11 01:42,68.81,1006.31,1024.38,150,-1.49,-6.48,-81,1
1586562206,2020-04-11 01:43,69.37,1006.33,1024.40,150,-1.51,-6.39,-81,1
1586562266,2020-04-11 01:44,69.57,1006.32,1024.39,150,-1.53,-6.37,-82,1
1586562326,2020-04-11 01:45,67.13,1006.32,1024.40,150,-1.54,-6.84,-81,1
1586562386,2020-04-11 01:46,69.22,1006.31,1024.39,150,-1.56,-6.46,-81,1
1586562446,2020-04-11 01:47,68.29,1006.31,1024.38,150,-1.58,-6.66,-81,1
1586562506,2020-04-11 01:48,68.65,1006.16,1024.23,150,-1.61,-6.62,-81,1
1586562566,2020-04-11 01:49,67.53,1006.31,1024.39,150,-1.63,-6.85,-80,1
1586562626,2020-04-11 01:50,68.59,1006.32,1024.40,150,-1.65,-6.67,-81,1
1586562686,2020-04-11 01:51,65.84,1006.35,1024.42,150,-1.68,-7.23,-80,1
1586562746,2020-04-11 01:52,68.25,1006.38,1024.46,150,-1.69,-6.77,-82,1
1586562806,2020-04-11 01:53,65.76,1006.40,1024.47,150,-1.72,-7.29,-81,1
1586562866,2020-04-11 01:54,68.78,1006.40,1024.47,150,-1.74,-6.72,-82,1
1586562926,2020-04-11 01:55,67.47,1006.40,1024.48,150,-1.76,-6.99,-81,1
1586562986,2020-04-11 01:56,69.77,1006.41,1024.48,150,-1.77,-6.56,-79,1
1586563046,2020-04-11 01:57,67.93,1006.42,1024.49,150,-1.80,-6.94,-81,1
1586563106,2020-04-11 01:58,69.30,1006.44,1024.52,150,-1.81,-6.69,-81,1
1586563166,2020-04-11 01:59,68.43,1006.45,1024.52,150,-1.82,-6.86,-81,1
1586563226,2020-04-11 02:00,70.39,1006.50,1024.57,150,-1.84,-6.52,-80,1
1586563286,2020-04-11 02:01,70.89,1006.50,1024.57,150,-1.85,-6.43,-81,1
1586563346,2020-04-11 02:02,68.71,1006.49,1024.56,150,-1.87,-6.86,-81,1
1586563406,2020-04-11 02:03,70.37,1006.50,1024.57,150,-1.89,-6.57,-81,1
1586563466,2020-04-11 02:04,66.99,1006.49,1024.56,150,-1.90,-7.22,-81,1
1586563526,2020-04-11 02:05,65.99,1006.52,1024.60,150,-1.91,-7.42,-81,1
1586563586,2020-04-11 02:06,66.37,1006.52,1024.60,150,-1.93,-7.37,-82,1
1586563646,2020-04-11 02:07,66.08,1006.54,1024.61,150,-1.94,-7.43,-81,1
1586563707,2020-04-11 02:08,65.68,1006.55,1024.63,150,-1.95,-7.52,-79,1
1586563767,2020-04-11 02:09,66.75,1006.56,1024.63,150,-1.95,-7.31,-81,1
1586563827,2020-04-11 02:10,67.43,1006.56,1024.63,150,-1.96,-7.19,-82,1
1586563887,2020-04-11 02:11,63.77,1006.58,1024.65,150,-1.97,-7.92,-82,1
1586563947,2020-04-11 02:12,66.92,1006.58,1024.65,150,-1.98,-7.31,-81,1
1586564007,2020-04-11 02:13,66.97,1006.60,1024.67,150,-1.99,-7.31,-81,1
1586564067,2020-04-11 02:14,68.11,1006.61,1024.68,150,-2.00,-7.10,-82,1
1586564127,2020-04-11 02:15,70.38,1006.60,1024.67,150,-2.01,-6.68,-81,1
1586564187,2020-04-11 02:16,67.94,1006.60,1024.67,150,-2.02,-7.15,-82,1
1586564247,2020-04-11 02:17,70.58,1006.62,1024.69,150,-2.03,-6.66,-81,1
1586564307,2020-04-11 02:18,71.65,1006.62,1024.69,150,-2.04,-6.48,-82,1
1586564367,2020-04-11 02:19,71.55,1006.63,1024.71,150,-2.05,-6.50,-81,1
1586564427,2020-04-11 02:20,72.64,1006.64,1024.71,150,-2.05,-6.31,-81,1
1586564487,2020-04-11 02:21,71.64,1006.66,1024.73,150,-2.07,-6.51,-81,1
1586564547,2020-04-11 02:22,71.75,1006.67,1024.74,150,-2.07,-6.49,-81,1
1586564607,2020-04-11 02:23,69.47,1006.66,1024.73,150,-2.09,-6.93,-81,1
1586564667,2020-04-11 02:24,71.17,1006.68,1024.76,150,-2.10,-6.62,-81,1
1586564727,2020-04-11 02:25,70.97,1006.72,1024.79,150,-2.11,-6.67,-81,1
1586564787,2020-04-11 02:26,72.33,1006.73,1024.81,150,-2.11,-6.42,-81,1
1586564847,2020-04-11 02:27,70.55,1006.72,1024.80,150,-2.13,-6.76,-81,1
1586564907,2020-04-11 02:28,66.95,1006.74,1024.81,150,-2.14,-7.45,-81,1
1586564967,2020-04-11 02:29,70.84,1006.71,1024.78,150,-2.14,-6.72,-82,1
1586565027,2020-04-11 02:30,65.38,1006.71,1024.78,150,-2.16,-7.78,-81,1
1586565088,2020-04-11 02:31,70.03,1006.77,1024.85,150,-2.16,-6.89,-80,1
1586565148,2020-04-11 02:32,69.90,1006.76,1024.84,150,-2.17,-6.92,-82,1
1586565208,2020-04-11 02:33,69.98,1006.80,1024.87,150,-2.16,-6.90,-81,1
1586565268,2020-04-11 02:34,69.54,1006.81,1024.88,150,-2.16,-6.98,-81,1
1586565328,2020-04-11 02:35,68.49,1006.82,1024.89,150,-2.18,-7.20,-82,1
1586565388,2020-04-11 02:36,71.48,1006.84,1024.91,150,-2.17,-6.63,-82,1
1586565448,2020-04-11 02:37,69.27,1006.82,1024.90,150,-2.18,-7.05,-83,1
1586565508,2020-04-11 02:38,70.52,1006.82,1024.89,150,-2.19,-6.83,-81,1
1586565568,2020-04-11 02:39,66.74,1006.83,1024.90,150,-2.19,-7.54,-81,1
1586565628,2020-04-11 02:40,70.43,1006.86,1024.93,150,-2.19,-6.84,-81,1
1586565688,2020-04-11 02:41,69.96,1006.86,1024.93,150,-2.21,-6.95,-81,1
1586565748,2020-04-11 02:42,68.56,1006.88,1024.95,150,-2.21,-7.21,-81,1
1586565808,2020-04-11 02:43,67.54,1006.87,1024.94,150,-2.22,-7.42,-81,1
1586565868,2020-04-11 02:44,67.25,1006.87,1024.95,150,-2.23,-7.48,-82,1
1586565928,2020-04-11 02:45,66.29,1006.90,1024.97,150,-2.23,-7.67,-81,1
1586565988,2020-04-11 02:46,69.22,1006.92,1024.99,150,-2.22,-7.10,-81,1
1586566048,2020-04-11 02:47,69.83,1006.96,1025.03,150,-2.23,-6.99,-82,1
1586566108,2020-04-11 02:48,71.88,1006.92,1024.99,150,-2.22,-6.61,-81,1
1586566168,2020-04-11 02:49,69.41,1006.95,1025.02,150,-2.23,-7.07,-81,1
1586566228,2020-04-11 02:50,65.66,1006.96,1025.03,150,-2.25,-7.81,-80,1
1586566288,2020-04-11 02:51,66.19,1006.98,1025.05,150,-2.25,-7.71,-82,1
1586566348,2020-04-11 02:52,67.56,1006.96,1025.04,150,-2.26,-7.45,-81,1
1586566408,2020-04-11 02:53,69.31,1006.96,1025.03,150,-2.27,-7.13,-81,1
1586566469,2020-04-11 02:54,66.31,1006.95,1025.02,150,-2.29,-7.72,-82,1
1586566529,2020-04-11 02:55,67.44,1006.97,1025.04,150,-2.29,-7.50,-81,1
1586566589,2020-04-11 02:56,66.49,1006.99,1025.06,150,-2.31,-7.71,-82,1
1586566649,2020-04-11 02:57,67.32,1006.96,1025.03,150,-2.32,-7.56,-81,1
1586566709,2020-04-11 02:58,70.55,1007.00,1025.07,150,-2.32,-6.95,-82,1
1586566769,2020-04-11 02:59,67.04,1006.98,1025.05,150,-2.34,-7.63,-81,1
1586566829,2020-04-11 03:00,68.44,1006.98,1025.06,150,-2.35,-7.37,-82,1
1586566889,2020-04-11 03:01,67.62,1007.03,1025.10,150,-2.36,-7.54,-80,1
1586566949,2020-04-11 03:02,67.94,1007.00,1025.07,150,-2.36,-7.48,-81,1
1586567009,2020-04-11 03:03,67.60,1007.01,1025.09,150,-2.37,-7.55,-82,1
1586567069,2020-04-11 03:04,66.88,1007.07,1025.14,150,-2.38,-7.70,-81,1
1586567129,2020-04-11 03:05,65.67,1007.05,1025.12,150,-2.40,-7.95,-81,1
1586567189,2020-04-11 03:06,66.81,1007.01,1025.08,150,-2.40,-7.73,-82,1
1586567249,2020-04-11 03:07,65.87,1007.04,1025.11,150,-2.40,-7.91,-81,1
1586567309,2020-04-11 03:08,66.13,1007.07,1025.14,150,-2.40,-7.86,-81,1
1586567369,2020-04-11 03:09,66.08,1007.09,1025.16,150,-2.41,-7.88,-82,1
1586567429,2020-04-11 03:10,65.67,1007.05,1025.12,150,-2.40,-7.95,-81,1
1586567489,2020-04-11 03:11,66.19,1007.07,1025.14,150,-2.40,-7.85,-82,1
1586567549,2020-04-11 03:12,64.94,1007.09,1025.16,150,-2.40,-8.10,-82,1
1586567609,2020-04-11 03:13,63.63,1007.09,1025.16,150,-2.40,-8.36,-82,1
1586567669,2020-04-11 03:14,63.52,1007.08,1025.16,150,-2.40,-8.38,-82,1
1586567729,2020-04-11 03:15,64.83,1007.08,1025.15,150,-2.39,-8.11,-82,1
1586567789,2020-04-11 03:16,65.71,1007.06,1025.14,150,-2.38,-7.93,-82,1
1586567850,2020-04-11 03:17,64.83,1007.07,1025.14,150,-2.37,-8.09,-82,1
1586567910,2020-04-11 03:18,64.75,1007.07,1025.14,150,-2.36,-8.10,-81,1
1586567970,2020-04-11 03:19,64.68,1007.08,1025.15,150,-2.35,-8.10,-82,1
1586568030,2020-04-11 03:20,67.55,1007.10,1025.17,150,-2.34,-7.53,-82,1
1586568090,2020-04-11 03:21,64.67,1007.13,1025.20,150,-2.35,-8.10,-81,1
1586568150,2020-04-11 03:22,67.72,1007.12,1025.19,150,-2.33,-7.49,-82,1
1586568210,2020-04-11 03:23,67.33,1007.12,1025.20,150,-2.33,-7.56,-81,1
1586568270,2020-04-11 03:24,67.75,1007.13,1025.20,150,-2.33,-7.48,-82,1
1586568330,2020-04-11 03:25,67.78,1007.11,1025.18,150,-2.33,-7.48,-82,1
1586568390,2020-04-11 03:26,65.88,1007.14,1025.21,150,-2.34,-7.85,-83,1
1586568450,2020-04-11 03:27,68.14,1007.15,1025.23,150,-2.34,-7.42,-82,1
1586568510,2020-04-11 03:28,69.77,1007.10,1025.17,150,-2.34,-7.11,-80,1
1586568570,2020-04-11 03:29,68.79,1007.12,1025.20,150,-2.36,-7.31,-82,1
1586568630,2020-04-11 03:30,67.32,1007.17,1025.25,150,-2.36,-7.59,-81,1
1586568690,2020-04-11 03:31,69.43,1007.16,1025.23,150,-2.37,-7.20,-82,1
1586568750,2020-04-11 03:32,70.14,1007.17,1025.24,150,-2.38,-7.08,-82,1
1586568810,2020-04-11 03:33,69.22,1007.19,1025.26,150,-2.40,-7.27,-82,1
1586568870,2020-04-11 03:34,70.55,1007.19,1025.26,150,-2.40,-7.03,-82,1
1586568930,2020-04-11 03:35,69.95,1007.18,1025.25,150,-2.42,-7.15,-82,1
1586568990,2020-04-11 03:36,69.04,1007.19,1025.26,150,-2.43,-7.33,-82,1
1586569050,2020-04-11 03:37,69.63,1007.22,1025.30,150,-2.43,-7.22,-82,1
1586569110,2020-04-11 03:38,70.08,1007.22,1025.29,150,-2.44,-7.15,-82,1
1586569171,2020-04-11 03:39,68.42,1007.23,1025.30,150,-2.44,-7.46,-82,1
1586569231,2020-04-11 03:40,67.30,1007.27,1025.34,150,-2.45,-7.68,-82,1
1586569291,2020-04-11 03:41,68.36,1007.24,1025.32,150,-2.46,-7.49,-82,1
1586569351,2020-04-11 03:42,66.21,1007.25,1025.33,150,-2.47,-7.91,-82,1
1586569411,2020-04-11 03:43,65.56,1007.27,1025.34,150,-2.47,-8.04,-81,1
1586569471,2020-04-11 03:44,65.81,1007.27,1025.35,150,-2.47,-7.99,-82,1
1586569531,2020-04-11 03:45,67.59,1007.30,1025.37,150,-2.47,-7.65,-84,1
1586569591,2020-04-11 03:46,67.36,1007.18,1025.25,150,-2.48,-7.70,-82,1
1586569651,2020-04-11 03:47,68.52,1007.30,1025.37,150,-2.48,-7.48,-82,1
1586569711,2020-04-11 03:48,68.19,1007.30,1025.37,150,-2.49,-7.55,-82,1
1586569771,2020-04-11 03:49,66.01,1007.29,1025.36,150,-2.50,-7.98,-83,1
1586569831,2020-04-11 03:50,68.78,1007.31,1025.38,150,-2.49,-7.44,-83,1
1586569891,2020-04-11 03:51,68.32,1007.31,1025.38,150,-2.50,-7.54,-82,1
1586569951,2020-04-11 03:52,68.77,1007.32,1025.39,150,-2.51,-7.46,-82,1
1586570011,2020-04-11 03:53,66.35,1007.31,1025.38,150,-2.52,-7.93,-82,1
1586570071,2020-04-11 03:54,67.99,1007.31,1025.38,150,-2.52,-7.62,-82,1
1586570131,2020-04-11 03:55,68.13,1007.31,1025.39,150,-2.54,-7.61,-82,1
1586570191,2020-04-11 03:56,67.32,1007.28,1025.36,150,-2.54,-7.77,-83,1
1586570251,2020-04-11 03:57,67.03,1007.32,1025.40,150,-2.55,-7.83,-82,1
1586570311,2020-04-11 03:58,68.65,1007.29,1025.36,150,-2.57,-7.54,-82,1
1586570371,2020-04-11 03:59,66.27,1007.31,1025.38,150,-2.58,-8.01,-84,1
1586570431,2020-04-11 04:00,67.23,1007.30,1025.37,150,-2.59,-7.83,-83,1
1586570491,2020-04-11 04:01,66.66,1007.30,1025.37,150,-2.60,-7.95,-83,1
1586570552,2020-04-11 04:02,68.56,1007.32,1025.39,150,-2.60,-7.59,-83,1
1586570612,2020-04-11 04:03,67.99,1007.33,1025.40,150,-2.61,-7.70,-83,1
1586570672,2020-04-11 04:04,66.81,1007.33,1025.41,150,-2.62,-7.94,-82,1
1586570732,2020-04-11 04:05,66.85,1007.35,1025.42,150,-2.62,-7.93,-82,1
1586570792,2020-04-11 04:06,67.99,1007.37,1025.44,150,-2.63,-7.72,-83,1
1586570852,2020-04-11 04:07,65.67,1007.38,1025.45,150,-2.65,-8.19,-82,1
1586570912,2020-04-11 04:08,68.29,1007.41,1025.48,150,-2.65,-7.69,-83,1
1586570972,2020-04-11 04:09,65.16,1007.40,1025.47,150,-2.66,-8.30,-83,1
1586571032,2020-04-11 04:10,64.75,1007.44,1025.52,150,-2.67,-8.39,-83,1
1586571092,2020-04-11 04:11,69.10,1007.44,1025.51,150,-2.66,-7.54,-83,1
1586571152,2020-04-11 04:12,67.06,1007.42,1025.49,150,-2.67,-7.94,-82,1
1586571212,2020-04-11 04:13,66.33,1007.45,1025.52,150,-2.67,-8.08,-82,1
1586571272,2020-04-11 04:14,63.94,1007.44,1025.51,150,-2.69,-8.57,-82,1
1586571332,2020-04-11 04:15,68.69,1007.44,1025.51,150,-2.68,-7.64,-82,1
1586571392,2020-04-11 04:16,67.73,1007.44,1025.51,150,-2.68,-7.82,-83,1
1586571452,2020-04-11 04:17,67.87,1007.42,1025.49,150,-2.68,-7.80,-82,1
1586571512,2020-04-11 04:18,66.00,1007.40,1025.47,150,-2.68,-8.16,-82,1
1586571572,2020-04-11 04:19,66.30,1007.44,1025.51,150,-2.68,-8.10,-82,1
1586571632,2020-04-11 04:20,67.65,1007.41,1025.49,150,-2.68,-7.84,-84,1
1586571692,2020-04-11 04:21,65.69,1007.44,1025.51,150,-2.68,-8.22,-82,1
1586571752,2020-04-11 04:22,67.91,1007.39,1025.46,150,-2.68,-7.79,-84,1
1586571812,2020-04-11 04:23,66.79,1007.42,1025.49,150,-2.69,-8.01,-82,1
1586571873,2020-04-11 04:24,68.12,1007.43,1025.51,150,-2.68,-7.75,-83,1
1586571933,2020-04-11 04:25,67.06,1007.44,1025.51,150,-2.69,-7.96,-83,1
1586571993,2020-04-11 04:26,66.38,1007.38,1025.46,150,-2.68,-8.08,-83,1
1586572053,2020-04-11 04:27,68.94,1007.39,1025.46,150,-2.67,-7.58,-83,1
1586572113,2020-04-11 04:28,65.64,1007.44,1025.52,150,-2.67,-8.22,-83,1
1586572173,2020-04-11 04:29,66.50,1007.43,1025.50,150,-2.66,-8.04,-83,1
1586572233,2020-04-11 04:30,64.28,1007.39,1025.46,150,-2.66,-8.48,-83,1
1586572293,2020-04-11 04:31,64.04,1007.43,1025.50,150,-2.65,-8.51,-83,1
1586572353,2020-04-11 04:32,64.29,1007.42,1025.49,150,-2.64,-8.45,-83,1
1586572413,2020-04-11 04:33,63.48,1007.45,1025.52,150,-2.62,-8.60,-82,1
1586572473,2020-04-11 04:34,64.43,1007.46,1025.53,150,-2.59,-8.38,-84,1
1586572533,2020-04-11 04:35,64.65,1007.47,1025.54,150,-2.57,-8.32,-82,1
1586572593,2020-04-11 04:36,64.37,1007.46,1025.54,150,-2.55,-8.35,-83,1
1586572653,2020-04-11 04:37,63.49,1007.49,1025.56,150,-2.52,-8.50,-83,1
1586572713,2020-04-11 04:38,64.28,1007.46,1025.53,150,-2.50,-8.32,-82,1
1586572773,2020-04-11 04:39,67.01,1007.47,1025.54,150,-2.46,-7.75,-83,1
1586572833,2020-04-11 04:40,64.46,1007.49,1025.56,150,-2.45,-8.24,-84,1
1586572893,2020-04-11 04:41,64.61,1007.47,1025.54,150,-2.43,-8.19,-83,1
1586572953,2020-04-11 04:42,64.17,1007.48,1025.55,150,-2.57,-8.41,-83,1
1586573013,2020-04-11 04:43,63.55,1007.47,1025.54,150,-2.39,-8.36,-83,1
1586573073,2020-04-11 04:44,62.74,1007.51,1025.58,150,-2.38,-8.52,-83,1
1586573133,2020-04-11 04:45,63.91,1007.45,1025.52,150,-2.36,-8.26,-83,1
1586573193,2020-04-11 04:46,63.06,1007.46,1025.53,150,-2.35,-8.43,-83,1
1586573254,2020-04-11 04:47,63.65,1007.48,1025.55,150,-2.33,-8.29,-82,1
1586573314,2020-04-11 04:48,63.50,1007.49,1025.56,150,-2.32,-8.31,-83,1
1586573374,2020-04-11 04:49,62.78,1007.48,1025.55,150,-2.31,-8.45,-83,1
1586573434,2020-04-11 04:50,63.84,1007.50,1025.57,150,-2.29,-8.21,-84,1
1586573494,2020-04-11 04:51,64.18,1007.53,1025.60,150,-2.27,-8.12,-83,1
1586573554,2020-04-11 04:52,66.33,1007.50,1025.58,150,-2.25,-7.68,-83,1
1586573614,2020-04-11 04:53,65.36,1007.50,1025.58,150,-2.24,-7.86,-82,1
1586573674,2020-04-11 04:54,67.79,1007.52,1025.59,150,-2.20,-7.35,-83,1
1586573734,2020-04-11 04:55,64.90,1007.51,1025.58,150,-2.20,-7.91,-83,1
1586573794,2020-04-11 04:56,62.72,1007.50,1025.57,150,-2.20,-8.35,-82,1
1586573854,2020-04-11 04:57,63.94,1007.50,1025.57,150,-2.18,-8.09,-84,1
1586573914,2020-04-11 04:58,64.50,1007.49,1025.57,150,-2.16,-7.95,-83,1
1586573974,2020-04-11 04:59,66.62,1007.53,1025.60,150,-2.15,-7.53,-83,1
1586574034,2020-04-11 05:00,64.76,1007.50,1025.58,150,-2.14,-7.88,-83,1
1586574094,2020-04-11 05:01,63.92,1007.48,1025.55,150,-2.14,-8.05,-84,1
1586574154,2020-04-11 05:02,64.32,1007.51,1025.58,150,-2.14,-7.97,-83,1
1586574214,2020-04-11 05:03,63.90,1007.50,1025.57,150,-2.14,-8.06,-84,1
1586574274,2020-04-11 05:04,63.02,1007.53,1025.61,150,-2.13,-8.23,-82,1
1586574334,2020-04-11 05:05,64.47,1007.53,1025.60,150,-2.12,-7.92,-84,1
1586574394,2020-04-11 05:06,64.50,1007.54,1025.61,150,-2.10,-7.90,-84,1
1586574454,2020-04-11 05:07,63.74,1007.55,1025.62,150,-2.09,-8.04,-82,1
1586574514,2020-04-11 05:08,66.84,1007.61,1025.68,150,-2.08,-7.42,-83,1
1586574574,2020-04-11 05:09,64.62,1007.58,1025.65,150,-2.07,-7.85,-82,1
1586574635,2020-04-11 05:10,63.64,1007.60,1025.67,150,-2.07,-8.04,-83,1
1586574695,2020-04-11 05:11,63.66,1007.59,1025.66,150,-2.07,-8.04,-83,1
1586574755,2020-04-11 05:12,63.71,1007.65,1025.72,150,-2.05,-8.01,-85,1
1586574815,2020-04-11 05:13,67.48,1007.67,1025.74,150,-2.03,-7.25,-82,1
1586574875,2020-04-11 05:14,64.00,1007.69,1025.76,150,-2.03,-7.93,-84,1
1586574935,2020-04-11 05:15,65.00,1007.71,1025.78,150,-2.03,-7.73,-83,1
1586574995,2020-04-11 05:16,65.21,1007.73,1025.80,150,-2.02,-7.68,-83,1
1586575055,2020-04-11 05:17,64.19,1007.73,1025.81,150,-2.01,-7.87,-82,1
1586575115,2020-04-11 05:18,65.05,1007.72,1025.79,150,-2.00,-7.69,-83,1
1586575175,2020-04-11 05:19,64.23,1007.71,1025.78,150,-1.99,-7.85,-83,1
1586575235,2020-04-11 05:20,63.91,1007.74,1025.81,150,-1.99,-7.91,-83,1
1586575295,2020-04-11 05:21,63.36,1007.71,1025.78,150,-1.99,-8.02,-83,1
1586575355,2020-04-11 05:22,64.25,1007.74,1025.81,150,-1.98,-7.83,-82,1
1586575415,2020-04-11 05:23,66.69,1007.77,1025.84,150,-1.98,-7.35,-83,1
1586575475,2020-04-11 05:24,64.57,1007.75,1025.82,150,-1.98,-7.77,-83,1
1586575535,2020-04-11 05:25,66.39,1007.75,1025.82,150,-1.98,-7.41,-82,1
1586575595,2020-04-11 05:26,64.53,1007.78,1025.86,150,-1.99,-7.79,-83,1
1586575655,2020-04-11 05:27,63.73,1007.81,1025.88,150,-1.99,-7.95,-84,1
1586575715,2020-04-11 05:28,66.08,1007.84,1025.91,150,-2.00,-7.49,-83,1
1586575775,2020-04-11 05:29,66.12,1007.83,1025.91,150,-2.01,-7.49,-84,1
1586575835,2020-04-11 05:30,65.11,1007.85,1025.92,150,-2.02,-7.70,-83,1
1586575895,2020-04-11 05:31,65.60,1007.84,1025.92,150,-2.03,-7.61,-83,1
1586575956,2020-04-11 05:32,66.37,1007.84,1025.91,150,-2.04,-7.47,-85,1